STARLINK-5532, 55760

Orbit data source: Space-Track

STARLINK-5532, 55760 is a payload satellite owned by SpaceX/Seattle (US) in LEO that was launched on Fri, 03 Mar 2023 UTC via an FALCON 9 launch vehicle from the Air Force Western Test Range (AFWTR). Payload-class satellites include a variety of spacecraft equipped with specific instruments for various scientific and technological missions. These include communications satellites like Starlink; space stations such as the ISS; scientific satellites like the Hubble; Earth observation satellites from companies like Planet Labs, Umbra, and HawkEye 360; GPS; miniature CubeSats for education and research; and military/defense satellites.

Loading next visibility...
Identifier
55760, 2023-028V
Orbit
LEO
Country
Flag of USUS
Related business
Manufacturer
SpaceX/Seattle
Mission
Operational Commercial Communications
Bus & Motor
STARLINK, Unknown motor
Mass
305 kg wet, ~290 kg dry
Launch date (UTC)
2023-03-03 (3 years ago)
Launch vehicle
FALCON 9
Launch site
Air Force Western Test Range (AFWTR)
Object type
Payload
Rocket body
Debris
Shape & HBR
Box + 1 Pan, 10.1 m
Radar Cross Section
11.087 m², Large (>1 m²)

Expand to show TLE details & history
Last TLE update: 2 days ago

TLE from 2 days ago
0 STARLINK-5532
1 55760U 23028V   26171.22121410  .00000122  00000-0  18057-4 0  9998
2 55760  69.9998 345.7270 0002956 267.2877  92.7943 14.98332352181402
Epoch: 2026-06-20T05:18Z
TLE epoch observation values (Epoch: 2026-06-20T05:18:32.898Z)
Latitude
-0.00008°
Longitude
-2.34905°
Altitude
574.573 km
Speed
7.574 km/s
True Right ascension
23h 02m 54s
True Declination
0° 00' 00"
Sunlit
Object was in daylight at epoch
Visualization orbit readout
Latitude
Unknown
Longitude
Unknown
Altitude
Unknown
Speed
Unknown
Apparent Right ascension
Unknown
Apparent Declination
Unknown
Sunlit
N/A
Visualization observer readout
Local Sidereal Time
21:29:52
Azimuth
Unknown
Elevation
Unknown
Doppler factor
Unknown
Orbital elements
Apogee altitude
572.051 km
Perigee altitude
567.943 km
Semi-major axis
6,948.134 km
Eccentricity
0.0003
Inclination
69.9998°
RAAN
345.727°
Arg. of periapsis
267.2877°
True anomaly
92.82813°
Mean anomaly
92.7943°
Eccentric anomaly
92.81122°
Mean motion
3.74749 °/min
Orbital period
96.06 mins
BSTAR
0.000018057
Loading maneuver chart data...
Computing Atmospheric mass density...
Loading historical data...
Loading historical data...
Loading historical data...
Loading historical data...
Loading historical data...
Loading historical data...
Loading historical data...

Documentation

Showing up to 5 results
|